Location: Al Mulaqqa?ah
(24.1833°N, 32.8833°E)
Time: 17:54:52
(UTC+00:00)

Cosmos 1315 Rocket - Pass Details

Date: 26 September 2021
Orbit: 529 x 566 km, 81.2° (Epoch: 17 October)

Event Time Altitude Azimuth Distance (km) Brightness Sun altitude
Rises 16:16:06 0° 159° (SSE) 2,666 6.1 -8.9°
Reaches altitude 10° 16:18:34 10° 145° (SE) 1,784 5.1 -9.5°
Maximum altitude 16:21:41 23° 92° (E) 1,176 3.9 -10.2°
Drops below altitude 10° 16:24:50 10° 39° (NE) 1,807 5.1 -10.9°
Sets 16:27:20 0° 25° (NNE) 2,709 6.1 -11.5°
